METAR EVRA 201120Z 15013G24KT 120V190 CAVOK 28/09 Q1012 NOSIG =

ATC Feedback

Controllers Online

PositionControllerOnline
No controllers currently online

Booked ATC Today

No ATC booked yet.
Be the first for today!
* Times are UTC

The time is now

UTC: 

Local: 

Latvia vACC on twitter